GOES 9 1 23581U 95025A 09004.86803042 -.00000091 00000-0 10000-3 0 9056 2 23581 004.8989 072.6280 0003558 242.4847 117.3424 00.98801891 49814 GOES 11 1 26352U 00022A 09005.23395201 .00000109 00000-0 10000-3 0 1302 2 26352 000.0364 103.1720 0005776 160.9090 150.1820 01.00282804 31777 NADEZHDA 6 1 26384U 00033A 09006.03382723 .00000018 00000-0 13141-4 0 5058 2 26384 098.4105 033.3809 0016234 005.0424 355.0937 14.64089253455221 NOAA 16 1 26536U 00055A 09006.57644294 -.00000312 00000-0 -14342-3 0 2390 2 26536 099.1723 006.3732 0010723 019.1492 341.0070 14.12505310427487 GOES 12 1 26871U 01031A 09005.21630139 -.00000227 00000-0 10000-3 0 8780 2 26871 000.3926 262.6262 0000540 150.4639 054.9143 01.00276217 27370 NOAA 17 1 27453U 02032A 09006.53802068 .00000112 00000-0 67273-4 0 2520 2 27453 098.5097 071.0043 0011075 231.7065 128.3109 14.24031475339745 INSAT 3A 1 27714U 03013A 09006.75527914 -.00000239 00000-0 10000-3 0 4278 2 27714 000.0947 081.7083 0000361 023.8717 006.2724 01.00270067 21083 NOAA 18 1 28654U 05018A 09006.25596795 .00000283 00000-0 18107-3 0 7342 2 28654 098.8916 310.8974 0015192 099.7058 260.5843 14.11223492187111 MSG 2 1 28912U 05049B 09006.08360434 .00000027 00000-0 10000-3 0 4430 2 28912 000.2960 161.7456 0003462 158.3992 176.5313 01.00284491 11224 METOP-A 1 29499U 06044A 09006.92151207 .00000186 00000-0 10528-3 0 7003 2 29499 098.7126 069.4384 0000907 097.6566 262.4670 14.21485961115103